[[{"header":{"parameterUnit":"m.s-1","parameterCategory":1,"la1":30.2991,"la2":30.254,"lo1":-89.0895,"lo2":-89.0444,"dy":0.0017,"dx":0.0017,"nx":28,"ny":28,"refTime":"2025-04-03T21:00:00:Z","depth":0,"parameterNumber":2,"parameterNumberName":"U-component_of_WINDS"},"data":[0,0,0,0,0,0,0,0,0,0,0,0,0,0,0,0,0,0,0,0,0,0,0,0,0,0,0,0,0,0,0,0,0,0,0,0,0,0,0,0,0,0,0,0,0,0,0,0,0,0,0,0,0,0,0,0,0,0,-4.9169,-4.9171,0,-4.9363,-4.9365,-4.9367,-4.941,-4.9409,-4.9407,-4.9406,-4.9605,-4.9611,-4.9618,0,0,0,0,0,0,0,0,0,0,0,0,0,-4.8837,-4.8843,-4.9169,-4.9171,-4.9174,-4.9363,-4.9365,-4.9368,-4.941,-4.9408,-4.9407,-4.9405,-4.9603,-4.9611,-4.9619,0,0,0,0,0,0,0,0,0,0,0,0,0,-4.9001,-4.8845,-4.9168,-4.9218,-4.9224,-4.9362,-4.9365,-4.9369,-4.9411,-4.9408,-4.9406,-4.9404,-4.96,-4.961,-4.962,-4.9723,0,0,-4.965,-4.9654,0,0,0,0,0,0,0,0,-4.8992,-4.9013,-4.9208,-4.9214,-4.9222,-4.936,-4.9321,-4.9487,-4.9411,-4.934,-4.9406,-4.9403,-4.9525,-4.9541,-4.9582,-4.9732,-4.9741,-4.9651,-4.9657,-4.9661,-4.9664,0,0,0,0,0,0,0,-4.898,-4.9005,-4.9246,-4.9211,-4.9219,-4.9231,-4.9252,-4.9353,-4.9442,-4.9346,-4.9349,-4.9372,-4.9529,-4.9573,-4.9587,-4.9744,-4.9651,-4.9659,-4.9665,-4.9669,-4.999,-4.9992,0,0,0,0,0,0,-4.896,-4.8995,-4.924,-4.9252,-4.9099,-4.9238,-4.9262,-4.9318,-4.9441,-4.9458,-4.9373,-4.9373,-4.9557,-4.9576,-4.9594,-4.9723,-4.9661,-4.967,-4.9676,-4.9987,-4.999,-4.9993,0,0,0,0,0,0,-4.8953,-4.8981,-4.9232,-4.9125,-4.9157,-4.9246,-4.9309,-4.9323,-4.9367,-4.9462,-4.9478,-4.9402,-4.9556,-4.958,-4.9691,-4.9731,-4.9675,-4.9684,-4.9984,-4.9988,-4.9992,-4.9982,0,0,0,0,0,0,-4.8943,-4.8979,-4.9018,-4.9125,-4.9163,-4.9324,-4.9311,-4.9328,-4.9384,-4.9385,-4.9493,-4.9508,-4.9556,-4.9676,-4.9701,-4.9743,-4.9691,-4.9981,-4.9986,-4.999,-4.9979,-4.9985,-4.999,0,0,0,0,0,-4.8931,-4.9007,-4.902,-4.9049,-4.9214,-4.9326,-4.9348,-4.9401,-4.9387,-4.9427,-4.9489,-4.9505,-4.9723,-4.9687,-4.9715,-4.9761,-4.9978,-4.9984,-4.999,-4.9976,-4.9984,-4.999,0,0,0,0,0,0,-4.8902,-4.9022,-4.9037,-4.915,-4.9228,-4.9333,-4.9386,-4.9407,-4.949,-4.9488,-4.9551,-4.9575,-4.9681,-4.9733,-4.969,-4.9869,-4.985,-4.9862,-4.983,-4.9838,-4.9843,-4.9828,-4.97,0,0,0,0,0,-4.8909,-4.899,-4.9091,-4.9181,-4.9219,-4.9296,-4.9347,-4.9381,-4.9464,-4.9497,-4.9567,-4.9647,-4.9734,-4.9789,-4.9874,-4.9988,-5.0012,-5.0034,-5.0039,-5.0043,-5.0052,-5.0117,-5.0127,-5.0012,-5.0012,-5.0012,0,0,-4.8923,-4.8999,-4.9046,-4.9177,-4.9241,-4.9324,-4.9323,-4.941,-4.9473,-4.9511,-4.9618,-4.9673,-4.9767,-4.9879,-4.9932,-4.9925,-5.009,-5.0051,-5.0053,-5.006,-5.0124,-5.0134,-5.0144,-5.0016,-5.0015,-5.0015,0,0,-4.8992,-4.9058,-4.914,-4.9205,-4.9302,-4.9353,-4.9373,-4.9477,-4.9514,-4.9624,-4.9654,-4.973,-4.9878,-4.9943,-4.9996,-5.0093,-5.0111,-5.0119,-5.0147,-5.0209,-5.0218,-5.0226,-5.026,-5.0272,-5.0128,-5.0128,-5.0128,0,-4.8998,-4.9123,-4.918,-4.9266,-4.9323,-4.9362,-4.9447,-4.9507,-4.9627,-4.9666,-4.9657,-4.9844,-4.991,-5.0039,-5.0063,-5.0104,-5.0129,-5.0106,-5.0212,-5.0221,-5.023,-5.0263,-5.0275,-5.0128,-5.0128,-5.0128,-5.0128,0,-4.9125,-4.9212,-4.9267,-4.9382,-4.9446,-4.9531,-4.9601,-4.9659,-4.9689,-4.9741,-4.9853,-4.9934,-5.0036,-5.007,-5.01,-5.0204,-5.0197,-5.0199,-5.0182,-5.024,-5.0272,-5.0285,-5.0129,-5.0129,-5.0128,-5.0128,0,0,-4.9178,-4.9325,-4.9344,-4.9397,-4.9509,-4.9577,-4.9665,-4.9766,-4.9813,-4.9896,-4.9971,-5.0097,-5.0101,-5.0161,-5.0199,-5.0254,-5.0325,-5.025,-5.0253,-5.026,-5.0444,-5.0439,-5.0453,-5.0339,-5.0341,-5.0344,-5.0436,0,-4.9259,-4.9415,-4.947,-4.96,-4.9681,-4.9721,-4.9797,-4.9875,-4.9927,-5.0004,-5.0062,-5.0149,-5.0148,-5.0185,-5.0241,-5.0304,-5.0362,-5.0299,-5.0409,-5.0412,-5.0381,-5.047,-5.0465,-5.0548,-5.0448,-5.0451,-5.0452,0,-4.9373,-4.9457,-4.9595,-4.9698,-4.9734,-4.9801,-4.9898,-4.9972,-5.0061,-5.0095,-5.0163,-5.0198,-5.0293,-5.0272,-5.0402,-5.0358,-5.0407,-5.0445,-5.045,-5.046,-5.0433,-5.0481,-5.0576,-5.0587,-5.0473,-5.0471,-5.047,0,-4.9396,-4.9544,-4.9646,-4.969,-4.9813,-4.986,-4.9913,-5.0,-5.0058,-5.0144,-5.0181,-5.0277,-5.0329,-5.0403,-5.0463,-5.0442,-5.0588,-5.0572,-5.0619,-5.0617,-5.0645,-5.0642,-5.0747,-5.068,-5.068,-5.068,-5.068,0,-4.9479,-4.9562,-4.9658,-4.972,-4.9814,-4.9877,-4.9969,-5.0025,-5.0103,-5.0177,-5.0219,-5.0288,-5.0364,-5.0444,-5.0492,-5.0593,-5.0616,-5.0647,-5.0658,-5.0642,-5.0638,-5.0673,-5.0668,-5.0683,-5.0683,-5.0682,-5.0681,0,-4.9519,-4.9587,-4.97,-4.9808,-4.9837,-4.9902,-4.9994,-5.0057,-5.0112,-5.0206,-5.0231,-5.0318,-5.0414,-5.0482,-5.0605,-5.0638,-5.0746,-5.0758,-5.0715,-5.0721,-5.0763,-5.0757,-5.0892,-5.0913,-5.0834,-5.0834,-5.0835,0,-4.9567,-4.9631,-4.9746,-4.9799,-4.9852,-4.9937,-4.9996,-5.0062,-5.0122,-5.023,-5.0279,-5.0378,-5.046,-5.0612,-5.0686,-5.0781,-5.0795,-5.0836,-5.0809,-5.0791,-5.0794,-5.0788,-5.0795,-5.0839,-5.0839,-5.084,-5.084,0,-4.9644,-4.9675,-4.9758,-4.9854,-4.9923,-5.0001,-5.008,-5.0122,-5.0202,-5.0267,-5.0366,-5.043,-5.0557,-5.0654,-5.0757,-5.0813,-5.084,-5.0848,-5.0864,-5.0847,-5.0819,-5.0833,-5.0724,-5.0844,-5.0844,-5.0843,-5.0843,-5.0843,-4.9689,-4.9748,-4.9838,-4.993,-4.9996,-5.007,-5.0134,-5.0198,-5.0281,-5.0388,-5.0423,-5.0525,-5.0615,-5.0756,-5.0814,-5.0895,-5.0893,-5.0916,-5.0921,-5.0926,-5.0924,-5.0808,-5.0915,-5.0915,-5.0915,-5.0915,-5.0915,0,-4.9766,-4.9827,-4.9911,-5.002,-5.0093,-5.0113,-5.0203,-5.0262,-5.0351,-5.0432,-5.0513,-5.0627,-5.0722,-5.0805,-5.0904,-5.0954,-5.0969,-5.0977,-5.0973,-5.0986,-5.0921,-5.0897,-5.0964,-5.0964,-5.0964,-5.0964,-5.0964,-5.0964,-4.9815,-4.9916,-4.9958,-5.0094,-5.0154,-5.0254,-5.0303,-5.0372,-5.0437,-5.0562,-5.0642,-5.0695,-5.0778,-5.0884,-5.0973,-5.0995,-5.1029,-5.1034,-5.1059,-5.0996,-5.099,-5.0985,-5.0962,-5.1042,-5.1042,-5.1117,-5.1118,-5.1118]},{"header":{"parameterUnit":"m.s-1","parameterCategory":1,"la1":30.2991,"la2":30.254,"lo1":-89.0895,"lo2":-89.0444,"dy":0.0017,"dx":0.0017,"nx":28,"ny":28,"refTime":"2025-04-03T21:00:00:Z","depth":0,"parameterNumber":3,"parameterNumberName":"V-component_of_WINDS"},"data":[0,0,0,0,0,0,0,0,0,0,0,0,0,0,0,0,0,0,0,0,0,0,0,0,0,0,0,0,0,0,0,0,0,0,0,0,0,0,0,0,0,0,0,0,0,0,0,0,0,0,0,0,0,0,0,0,0,0,4.8175,4.8176,0,4.8316,4.8317,4.8319,4.8364,4.8363,4.8363,4.8362,4.8506,4.851,4.8514,0,0,0,0,0,0,0,0,0,0,0,0,0,4.7945,4.7949,4.8174,4.8176,4.8178,4.8316,4.8317,4.8319,4.8364,4.8363,4.8362,4.8362,4.8504,4.8509,4.8515,0,0,0,0,0,0,0,0,0,0,0,0,0,4.8061,4.795,4.8174,4.8217,4.8222,4.8315,4.8318,4.832,4.8364,4.8363,4.8362,4.8361,4.8502,4.8509,4.8515,4.8576,0,0,4.8536,4.8539,0,0,0,0,0,0,0,0,4.8055,4.807,4.8209,4.8214,4.822,4.8321,4.8289,4.8406,4.8364,4.831,4.8362,4.8361,4.8445,4.8456,4.8485,4.8583,4.8589,4.8536,4.854,4.8543,4.8545,0,0,0,0,0,0,0,4.8047,4.8064,4.823,4.8211,4.8218,4.823,4.8245,4.8312,4.8381,4.8315,4.8318,4.8335,4.8448,4.8478,4.8489,4.8591,4.8536,4.8542,4.8546,4.8549,4.875,4.8751,0,0,0,0,0,0,4.8031,4.8057,4.8226,4.8235,4.8133,4.8234,4.8252,4.829,4.8381,4.8394,4.8335,4.8336,4.8468,4.8481,4.8494,4.8574,4.8543,4.8549,4.8553,4.8748,4.875,4.8751,0,0,0,0,0,0,4.8026,4.8046,4.822,4.8147,4.817,4.8239,4.8282,4.8293,4.8324,4.8396,4.8409,4.8354,4.8467,4.8484,4.8556,4.8579,4.8552,4.8558,4.8747,4.8749,4.8751,4.8731,0,0,0,0,0,0,4.8019,4.8044,4.8067,4.8147,4.8174,4.828,4.8283,4.8297,4.8335,4.8338,4.8417,4.8429,4.8468,4.8546,4.8563,4.8588,4.8564,4.8745,4.8748,4.875,4.873,4.8732,4.8734,0,0,0,0,0,4.8011,4.8055,4.8068,4.8088,4.8204,4.8281,4.8296,4.834,4.8337,4.8361,4.8408,4.8426,4.8574,4.8553,4.8572,4.8599,4.8744,4.8747,4.875,4.8729,4.8732,4.8734,0,0,0,0,0,0,4.7974,4.8066,4.8081,4.8152,4.8209,4.8288,4.832,4.8341,4.8399,4.8399,4.8451,4.8469,4.8537,4.8575,4.8551,4.8665,4.866,4.8667,4.8637,4.8641,4.8642,4.8632,4.8569,0,0,0,0,0,4.7975,4.8029,4.8106,4.8161,4.8189,4.825,4.8285,4.8314,4.8374,4.8398,4.8451,4.8508,4.8568,4.8606,4.8665,4.8736,4.8755,4.8764,4.8766,4.8767,4.8773,4.8817,4.8823,4.8761,4.8761,4.8761,0,0,4.7975,4.8032,4.8063,4.8156,4.8203,4.8259,4.8269,4.8327,4.837,4.8407,4.8479,4.8519,4.8588,4.866,4.8694,4.8694,4.8795,4.8771,4.8772,4.8777,4.8821,4.8826,4.8832,4.8763,4.8763,4.8763,0,0,4.8006,4.8054,4.8107,4.8154,4.8226,4.8267,4.8279,4.8357,4.8386,4.8459,4.8488,4.854,4.8641,4.8689,4.8727,4.878,4.88,4.8797,4.8808,4.885,4.8855,4.886,4.8881,4.8888,4.8803,4.8803,4.8803,0,4.7998,4.8084,4.8131,4.8189,4.823,4.8267,4.8322,4.8366,4.8453,4.848,4.8479,4.8609,4.8657,4.8743,4.8756,4.8784,4.8802,4.8789,4.8851,4.8856,4.8861,4.8882,4.8889,4.8802,4.8802,4.8802,4.8802,0,4.8072,4.8131,4.8166,4.825,4.8295,4.8351,4.8407,4.8447,4.8473,4.8514,4.859,4.865,4.8723,4.8745,4.877,4.8836,4.8833,4.884,4.8836,4.8865,4.8886,4.8894,4.8801,4.8801,4.8802,4.8802,0,0,4.8083,4.8195,4.8207,4.8247,4.833,4.8377,4.8436,4.8509,4.8543,4.8602,4.8654,4.874,4.8748,4.8791,4.8822,4.8859,4.8901,4.8862,4.8865,4.8869,4.898,4.8975,4.8983,4.8914,4.8916,4.8917,4.8975,0,4.8126,4.8233,4.8278,4.8364,4.8421,4.8459,4.851,4.8568,4.8608,4.8663,4.8708,4.8769,4.8774,4.8801,4.8838,4.8887,4.8924,4.8884,4.8964,4.8967,4.8948,4.8994,4.8989,4.904,4.8983,4.8984,4.8985,0,4.819,4.8252,4.8344,4.8424,4.8449,4.8495,4.8567,4.8618,4.8685,4.8712,4.8761,4.8792,4.8856,4.8848,4.8939,4.8911,4.8947,4.8976,4.8979,4.8989,4.8978,4.9007,4.9057,4.9066,4.8998,4.8997,4.8996,0,4.8192,4.8297,4.8367,4.84,4.8494,4.8526,4.8566,4.8632,4.8674,4.8737,4.8765,4.8833,4.8872,4.8925,4.8974,4.8962,4.9061,4.9056,4.9087,4.9086,4.9107,4.9105,4.9165,4.9127,4.9127,4.9127,4.9126,0,4.8236,4.8292,4.837,4.8413,4.8477,4.8529,4.8592,4.8635,4.8694,4.8747,4.8783,4.8832,4.8893,4.895,4.8989,4.906,4.9076,4.9101,4.9111,4.9099,4.9096,4.9124,4.9123,4.9129,4.9128,4.9128,4.9127,0,4.8248,4.8303,4.8382,4.8465,4.8488,4.8532,4.8603,4.8648,4.8691,4.8758,4.8777,4.8844,4.8914,4.8968,4.9058,4.9085,4.9161,4.917,4.9138,4.9144,4.9173,4.917,4.9255,4.9269,4.9219,4.9219,4.922,0,4.8274,4.8318,4.8407,4.8446,4.8486,4.8548,4.8591,4.8645,4.8689,4.877,4.8805,4.8878,4.8939,4.9049,4.9106,4.9176,4.9189,4.9214,4.92,4.9188,4.9193,4.919,4.9196,4.9216,4.9216,4.9216,4.9217,0,4.8314,4.834,4.8401,4.8473,4.8524,4.8583,4.8643,4.8673,4.8737,4.8785,4.8858,4.8905,4.8999,4.9071,4.9148,4.9191,4.9216,4.9221,4.9232,4.9221,4.9202,4.9215,4.9145,4.9219,4.9218,4.9218,4.9218,4.9218,4.8336,4.8378,4.8448,4.8516,4.8567,4.8623,4.867,4.872,4.8781,4.8862,4.889,4.8966,4.9034,4.914,4.9184,4.9244,4.9245,4.9261,4.9265,4.9269,4.9269,4.9191,4.9258,4.9258,4.9258,4.9258,4.9258,0,4.838,4.8428,4.849,4.8574,4.8628,4.8647,4.8715,4.8759,4.8825,4.8887,4.8947,4.9032,4.9104,4.9168,4.9243,4.9279,4.9292,4.9297,4.9296,4.9306,4.9263,4.9246,4.9285,4.9285,4.9285,4.9285,4.9285,4.9285,4.841,4.8483,4.8518,4.8618,4.8665,4.874,4.8778,4.883,4.888,4.8974,4.9034,4.9075,4.9139,4.9219,4.9286,4.9304,4.933,4.9332,4.9353,4.9312,4.9308,4.9305,4.929,4.9337,4.9337,4.9391,4.9392,4.9392]}]]